Alturas, CA

3:26 PM PST on December 06, 2016 (GMT -0800)
Alturas Municipal

Weather History for KAAT - November, 2013

Change the Weather History Date:

Sunday, November 10, 2013

  Actual Average Record
Temperature  
Mean Temperature 44 °F 38 °F  
Max Temperature 68 °F 52 °F 74 °F (2016)
Min Temperature 19 °F 24 °F 4 °F (1936)
Degree Days  
Heating Degree Days 21 27  
Month to date heating degree days 254 254  
Since 1 July heating degree days 1209 1197  
Cooling Degree Days 0 0  
Month to date cooling degree days 0 0  
Year to date cooling degree days 280 156  
Moisture  
Dew Point 18 °F    
Average Humidity 46    
Maximum Humidity 77    
Minimum Humidity 15    
Precipitation  
Precipitation 0.00 in 0.06 in 0.82 in (1944)
Month to date precipitation 0.01 0.62  
Year to date precipitation 5.84 11.29  
Snow  
Snow 0.00 in - - ()
Month to date snowfall 0.0  
Year to date snowfall 0.0  
Snow Depth 0.00 in    
Sea Level Pressure  
Sea Level Pressure 30.16 in    
Wind  
Wind Speed 3 mph (South)    
Max Wind Speed 18 mph    
Max Gust Speed 23 mph    
Visibility 9 miles    
Events      
T = Trace of Precipitation, MM = Missing Value Source: NWS Daily Summary

Daily Weather History Graph

Daily Weather History Graph

Search for Another Location

Airport or City:

Trip Planner

Search our weather history database for the weather conditions in past years. The results will help you decide how hot, cold, wet, or windy it might be!

Date:

Astronomy

Nov. 10, 2013 Rise Set
Actual Time 6:45 AM PST 4:46 PM PST
Civil Twilight 6:15 AM PST 5:16 PM PST
Nautical Twilight 5:42 AM PST 5:49 PM PST
Astronomical Twilight 5:10 AM PST 6:21 PM PST
Moon 12:59 PM PST (11/10) No Moon Set
Length of Visible Light 11h 00m
Length of Day
10h 01m
First Quarter, 56% of the Moon is Illuminated
Nov 10
First Quarter
Nov 17
Full
Nov 25
Last Quarter
Dec 2
New
Dec 9
First Quarter

Hourly Weather History & Observations

Time (PST) Temp. Windchill Dew Point Humidity Pressure Visibility Wind Dir Wind Speed Gust Speed Precip Events Conditions
12:55 AM 26.1 °F - 18.0 °F 71% 30.13 in 10.0 mi Calm Calm - N/A   Clear
1:55 AM 26.1 °F - 19.0 °F 75% 30.12 in 10.0 mi Calm Calm - N/A   Clear
2:55 AM 24.1 °F - 17.1 °F 75% 30.13 in 5.0 mi Calm Calm - N/A   Haze
3:55 AM 23.0 °F - 16.0 °F 74% 30.14 in 9.0 mi Calm Calm - N/A   Clear
4:55 AM 21.9 °F - 16.0 °F 78% 30.17 in 10.0 mi Calm Calm - N/A   Clear
5:55 AM 19.9 °F - 12.9 °F 74% 30.21 in 10.0 mi Calm Calm - N/A   Clear
6:55 AM 19.0 °F - 12.9 °F 77% 30.23 in 10.0 mi Calm Calm - N/A   Clear
8:55 AM 39.9 °F - 24.1 °F 53% 30.20 in 10.0 mi Calm Calm - N/A   Clear
9:55 AM 51.1 °F - 27.0 °F 39% 30.18 in 10.0 mi Calm Calm - N/A   Clear
10:55 AM 64.0 °F - 25.0 °F 23% 30.13 in 10.0 mi SSE 9.2 mph - N/A   Clear
11:55 AM 66.0 °F - 19.9 °F 17% 30.12 in 10.0 mi South 12.7 mph 19.6 mph N/A   Clear
12:55 PM 66.9 °F - 19.9 °F 17% 30.10 in 10.0 mi SSE 13.8 mph - N/A   Clear
1:55 PM 66.9 °F - 17.1 °F 15% 30.09 in 10.0 mi SSE 10.4 mph - N/A   Clear
2:55 PM 66.9 °F - 17.1 °F 15% 30.09 in 10.0 mi SSE 5.8 mph - N/A   Clear
3:55 PM 64.0 °F - 19.9 °F 18% 30.11 in 10.0 mi West 8.1 mph - N/A   Clear
4:55 PM 55.0 °F - 19.9 °F 25% 30.15 in 10.0 mi WSW 9.2 mph - N/A   Clear
5:55 PM 48.9 °F - 21.0 °F 33% 30.19 in 10.0 mi Calm Calm - N/A   Clear
6:55 PM 46.0 °F 43.1 °F 21.0 °F 37% 30.22 in 10.0 mi ENE 5.8 mph - N/A   Clear
7:55 PM 37.9 °F - 19.0 °F 47% 30.23 in 5.0 mi Calm Calm - N/A   Haze
8:55 PM 30.9 °F - 18.0 °F 59% 30.22 in 10.0 mi Calm Calm - N/A   Clear
9:55 PM 30.0 °F - 16.0 °F 56% 30.21 in 6.0 mi Calm Calm - N/A   Haze
10:55 PM 26.1 °F - 14.0 °F 60% 30.18 in 8.0 mi Calm Calm - N/A   Clear
11:55 PM 23.0 °F - 12.0 °F 63% 30.19 in 7.0 mi Calm Calm - N/A   Clear